Location: Spruce Knob
(38.6995°N, 79.5330°W)
Time: 03:54:08
(UTC-05:00)

A-11 Canister half - All Passes

Search period start: 28 January 2022 00:00
Search period end: 07 February 2022 00:00
Orbit: 1516 x 1684 km, 47.2° (Epoch: 27 January)

Date Brightness Start Highest point End Pass type
(mag) Time Alt. Az. Time Alt. Az. Time Alt. Az.
28 Jan - 12:59:42 10° SE 13:03:06 12° ESE 13:06:28 10° E daylight
28 Jan - 14:57:12 10° SSW 15:06:30 53° SE 15:15:29 10° ENE daylight
28 Jan - 17:01:47 10° WSW 17:11:19 68° NNW 17:20:36 10° ENE daylight
28 Jan - 19:08:19 10° WNW 19:17:25 51° N 19:26:21 10° ENE visible
28 Jan - 21:14:00 10° WNW 21:23:20 76° NNE 21:32:37 10° ESE visible
28 Jan - 23:19:19 10° WNW 23:27:48 43° SW 23:36:22 10° SSE visible
29 Jan - 12:38:09 10° SE 12:40:17 11° ESE 12:42:24 10° ESE daylight
29 Jan - 14:34:24 10° SSW 14:43:37 50° SE 14:52:33 10° ENE daylight
29 Jan - 16:38:47 10° WSW 16:48:22 70° NNW 16:57:41 10° ENE daylight
29 Jan - 18:45:18 10° WNW 18:54:25 51° N 19:03:22 10° ENE visible
29 Jan - 20:51:05 10° WNW 21:00:24 73° NNE 21:09:39 10° ESE visible
29 Jan - 22:56:21 10° WNW 23:04:57 45° SW 23:13:37 10° SSE visible
30 Jan - 14:11:37 10° SSW 14:20:45 47° SE 14:29:35 10° ENE daylight
30 Jan - 16:15:47 10° WSW 16:25:24 73° NNW 16:34:46 10° ENE daylight
30 Jan - 18:22:17 10° WNW 18:31:26 51° N 18:40:23 10° ENE visible
30 Jan - 20:28:08 10° WNW 20:37:28 70° NNE 20:46:42 10° ESE visible
30 Jan - 22:33:23 10° WNW 22:42:06 48° SW 22:50:53 10° SSE visible
31 Jan - 13:48:50 10° SSW 13:57:52 44° SE 14:06:38 10° ENE daylight
31 Jan - 15:52:47 10° WSW 16:02:28 76° NNW 16:11:51 10° ENE daylight
31 Jan - 17:59:15 10° WNW 18:08:26 51° N 18:17:24 10° ENE visible
31 Jan - 20:05:12 10° WNW 20:14:31 68° NNE 20:23:44 10° ESE visible
31 Jan - 22:10:25 10° WNW 22:19:15 52° SW 22:28:06 10° SSE visible
01 Feb - 00:20:01 10° WSW 00:22:30 11° WSW 00:24:58 10° SW night (unlit)
01 Feb - 13:26:04 10° SSW 13:35:00 41° SE 13:43:39 10° ENE daylight
01 Feb - 15:29:47 10° WSW 15:39:31 78° NNW 15:48:56 10° ENE daylight
01 Feb - 17:36:14 10° WNW 17:45:27 51° N 17:54:26 10° ENE daylight
01 Feb - 19:42:15 10° WNW 19:51:34 66° NNE 20:00:45 10° ESE visible
01 Feb - 21:47:28 10° WNW 21:56:24 55° SW 22:05:19 10° SSE visible
01 Feb - 23:56:09 10° W 23:59:42 13° WSW 00:03:16 10° SW visible
02 Feb - 13:03:20 10° SSW 13:12:08 39° SE 13:20:40 10° ENE daylight
02 Feb - 15:06:48 10° WSW 15:16:34 81° NNW 15:26:02 10° ENE daylight
02 Feb - 17:13:11 10° W 17:22:26 51° N 17:31:27 10° ENE daylight
02 Feb - 19:19:17 10° WNW 19:28:37 64° NNE 19:37:47 10° E visible
02 Feb - 21:24:31 10° WNW 21:33:31 58° SW 21:42:31 10° SE visible
02 Feb - 23:32:34 10° W 23:36:54 14° WSW 23:41:15 10° SSW visible
03 Feb - 12:40:37 10° SSW 12:49:17 36° SE 12:57:40 10° ENE daylight
03 Feb - 14:43:49 10° WSW 14:53:38 84° NNW 15:03:07 10° ENE daylight
03 Feb - 16:50:09 10° W 16:59:27 52° N 17:08:29 10° ENE daylight
03 Feb - 18:56:19 10° WNW 19:05:40 62° NNE 19:14:48 10° E visible
03 Feb - 21:01:33 10° WNW 21:10:40 62° SW 21:19:42 10° SE visible
03 Feb - 23:09:09 10° W 23:14:06 16° SW 23:19:05 10° SSW visible
04 Feb - 12:17:55 10° S 12:26:25 34° SE 12:34:39 10° ENE daylight
04 Feb - 14:20:52 10° WSW 14:30:42 88° NNW 14:40:12 10° ENE daylight
04 Feb - 16:27:06 10° W 16:36:27 53° N 16:45:32 10° ENE daylight
04 Feb - 18:33:22 10° WNW 18:42:42 60° NNE 18:51:49 10° E visible
04 Feb - 20:38:37 10° WNW 20:47:47 65° SW 20:56:52 10° SE visible
04 Feb - 22:45:49 10° W 22:51:17 17° SW 22:56:48 10° SSW visible
05 Feb - 11:55:14 10° S 12:03:33 32° SE 12:11:38 10° ENE daylight
05 Feb - 13:57:53 10° WSW 14:07:45 89° SSE 14:17:18 10° ENE daylight
05 Feb - 16:04:04 10° W 16:13:27 53° N 16:22:34 10° ENE daylight
05 Feb - 18:10:24 10° WNW 18:19:44 59° NNE 18:28:50 10° E visible
05 Feb - 20:15:40 10° WNW 20:24:55 69° SW 20:34:02 10° SE visible
05 Feb - 22:22:33 10° W 22:28:29 19° SW 22:34:26 10° SSW visible
06 Feb - 11:32:35 10° S 11:40:41 29° SE 11:48:35 10° ENE daylight
06 Feb - 13:34:56 10° SW 13:44:50 86° SSE 13:54:23 10° ENE daylight
06 Feb - 15:41:01 10° W 15:50:28 54° N 15:59:37 10° ENE daylight
06 Feb - 17:47:25 10° WNW 17:56:45 58° NNE 18:05:51 10° E daylight
06 Feb - 19:52:43 10° WNW 20:02:01 73° SW 20:11:11 10° SE visible
06 Feb - 21:59:21 10° W 22:05:41 21° SW 22:12:01 10° S visible
